Location: Coupvray
(48.8929°N, 2.7967°E)
Time: 20:22:59
(UTC+00:00)

Cosmos 1241 Rocket - Pass Details

Date: 02 November 2020
Orbit: 929 x 1018 km, 65.8° (Epoch: 30 November)

Event Time Altitude Azimuth Distance (km) Brightness Sun altitude
Rises 17:44:16 0° 266° (W) 3,667 9.6 -13.2°
Reaches altitude 10° 17:47:18 10° 280° (W) 2,738 8.1 -13.7°
Maximum altitude 17:52:32 25° 334° (NNW) 1,878 6.2 -14.6°
Drops below altitude 10° 17:57:51 10° 29° (NNE) 2,791 6.6 -15.4°
Enters shadow 17:58:57 - 35° (NE) 3,111 6.8 -15.6°
